DW4063 Weather Reports


Display with metric or nautical units.
time (UTC)temp
F
wind
direction
speed
MPH
gust
MPH
rain 1hr
in
rain 24hr
in
rain mn
in
humidity
%
barometer
mb
20260510103012 37 24 0.0 0.0 0.00 0.00 0.00 86 1016.9
20260510101511 37 24 0.0 0.0 0.00 0.00 0.00 85 1016.8
20260510100025 38 24 0.0 1.0 0.00 0.00 0.00 84 1016.5
20260510094522 39 24 0.0 0.0 0.00 0.00 0.00 82 1016.4
20260510093024 39 24 0.0 1.0 0.00 0.00 0.00 81 1016.1
20260510091516 41 24 0.0 0.0 0.00 0.00 0.00 79 1016.3
20260510084512 43 24 0.0 0.0 0.00 0.00 0.00 74 1016.1
20260510083035 44 24 0.0 0.0 0.00 0.00 0.00 70 1015.9
20260510080022 44 23 0.0 2.0 0.00 0.00 0.00 72 1015.4
20260510074521 42 22 0.0 2.0 0.00 0.00 0.00 79 1015.1
20260510073017 41 11 0.0 3.0 0.00 0.00 0.00 87 1015.0
20260510071512 41 15 0.0 2.0 0.00 0.00 0.00 89 1014.6
20260510070029 41 15 0.0 0.0 0.00 0.00 0.00 88 1014.3
20260510064527 41 15 0.0 1.0 0.00 0.00 0.00 87 1014.1
20260510063025 42 15 0.0 2.0 0.00 0.00 0.00 87 1013.7
20260510061523 42 18 0.0 0.0 0.00 0.00 0.00 86 1013.5
20260510060016 43 18 0.0 2.0 0.00 0.00 0.00 85 1013.5
20260510054522 43 18 0.0 0.0 0.00 0.00 0.00 83 1013.4
20260510053026 44 18 0.0 0.0 0.00 0.00 0.00 83 1013.3
20260510051537 44 18 0.0 1.0 0.00 0.00 0.00 81 1013.1
20260510050026 45 18 0.0 0.0 0.00 0.00 0.00 79 1012.8
20260510044524 46 18 0.0 0.0 0.00 0.00 0.00 78 1012.6
20260510043024 46 18 0.0 0.0 0.00 0.00 0.00 76 1012.2
20260510040017 48 18 0.0 0.0 0.00 0.00 0.00 71 1011.7
20260510034513 49 18 0.0 0.0 0.00 0.00 0.00 71 1011.6
20260510033009 50 18 0.0 0.0 0.00 0.00 0.00 68 1011.5
20260510031504 52 18 0.0 2.0 0.00 0.00 0.00 65 1011.4
20260510030024 53 47 0.0 0.0 0.00 0.00 0.00 61 1011.3
20260510024521 55 47 0.0 0.0 0.00 0.00 0.00 54 1011.0
20260510023014 56 47 0.0 2.0 0.00 0.00 0.00 49 1010.8
20260510021511 57 90 1.0 4.0 0.00 0.00 0.00 47 1010.3
20260510020008 59 84 1.0 4.0 0.00 0.00 0.00 44 1009.7
20260510014509 62 66 1.0 4.0 0.00 0.00 0.00 39 1009.4
20260510013023 64 171 0.0 5.0 0.00 0.00 0.00 39 1008.9
20260510011532 65 329 0.0 6.0 0.00 0.00 0.00 37 1008.6
20260510010019 65 302 1.0 10.0 0.00 0.00 0.00 37 1008.2
20260510004516 67 304 0.0 4.0 0.00 0.00 0.00 38 1007.9
20260510003027 68 329 2.0 8.0 0.00 0.00 0.00 34 1007.5
20260510001527 69 325 3.0 12.0 0.00 0.00 0.00 32 1007.2
20260510000027 69 314 5.0 13.0 0.00 0.00 0.00 31 1006.9
20260509234525 70 360 3.0 12.0 0.00 0.00 0.00 33 1006.7
20260509233022 71 329 3.0 12.0 0.00 0.00 0.00 30 1006.5
20260509231527 71 191 5.0 13.0 0.00 0.00 0.00 31 1006.4
20260509230027 72 334 2.0 11.0 0.00 0.00 0.00 30 1006.1
20260509224526 73 320 3.0 12.0 0.00 0.00 0.00 28 1005.9
20260509223025 73 319 5.0 13.0 0.00 0.00 0.00 27 1005.8
20260509221534 73 333 5.0 12.0 0.00 0.00 0.00 29 1005.6
20260509220023 73 344 5.0 15.0 0.00 0.00 0.00 29 1005.5
20260509214519 73 352 3.0 15.0 0.00 0.00 0.00 30 1005.2
20260509213017 74 295 4.0 15.0 0.00 0.00 0.00 29 1005.1
20260509211513 74 308 4.0 20.0 0.00 0.00 0.00 29 1004.8
20260509210008 74 246 4.0 18.0 0.00 0.00 0.00 30 1004.8
20260509203023 74 331 7.0 16.0 0.00 0.00 0.00 30 1004.8
20260509200019 73 360 4.0 14.0 0.00 0.00 0.00 31 1005.0
20260509194516 72 329 4.0 17.0 0.00 0.00 0.00 30 1005.1
20260509193014 72 338 7.0 12.0 0.00 0.00 0.00 31 1005.0
20260509191508 71 221 6.0 17.0 0.00 0.00 0.00 30 1005.1
20260509190040 72 346 3.0 11.0 0.00 0.00 0.00 30 1005.0
20260509184529 73 228 3.0 12.0 0.00 0.00 0.00 27 1004.9
20260509183026 72 225 4.0 10.0 0.00 0.00 0.00 31 1004.8
20260509180016 72 294 3.0 12.0 0.00 0.00 0.00 33 1004.9
20260509174527 73 290 4.0 12.0 0.00 0.00 0.00 33 1005.0
20260509173024 73 346 4.0 9.0 0.00 0.00 0.00 33 1005.0
20260509171525 72 328 3.0 12.0 0.00 0.00 0.00 34 1005.0
20260509170029 71 307 3.0 8.0 0.00 0.00 0.00 48 1005.0
20260509164520 70 281 2.0 6.0 0.00 0.00 0.00 49 1005.1
20260509163017 68 213 3.0 6.0 0.00 0.00 0.00 55 1005.1
20260509161524 67 245 2.0 8.0 0.00 0.00 0.00 55 1005.1
20260509160007 66 212 3.0 9.0 0.00 0.00 0.00 56 1005.1
20260509154506 65 332 1.0 6.0 0.00 0.00 0.00 62 1005.1
20260509153006 65 223 4.0 8.0 0.00 0.00 0.00 61 1005.2
20260509151503 63 278 1.0 8.0 0.00 0.00 0.00 68 1005.3
20260509150006 62 329 1.0 7.0 0.00 0.00 0.00 70 1005.3
20260509144509 61 256 2.0 10.0 0.00 0.00 0.00 72 1005.3
20260509143013 60 313 2.0 9.0 0.00 0.00 0.00 74 1005.3
20260509141518 60 221 3.0 7.0 0.00 0.00 0.00 77 1005.0
20260509140007 59 254 3.0 8.0 0.00 0.00 0.00 78 1005.2
20260509134504 58 180 3.0 6.0 0.00 0.00 0.00 80 1005.0
20260509133010 57 175 2.0 6.0 0.00 0.00 0.00 82 1004.9
20260509131514 56 231 2.0 8.0 0.00 0.00 0.00 83 1005.2
20260509130011 55 222 3.0 6.0 0.00 0.00 0.00 85 1005.2
20260509124511 54 213 3.0 5.0 0.00 0.00 0.00 88 1005.2
20260509123017 53 242 1.0 4.0 0.00 0.00 0.00 91 1005.0
20260509120010 51 194 1.0 4.0 0.00 0.00 0.00 92 1005.0
20260509114503 51 227 1.0 4.0 0.00 0.00 0.00 92 1005.0
20260509113012 51 224 1.0 5.0 0.00 0.00 0.00 92 1004.7
20260509111510 51 205 2.0 4.0 0.00 0.00 0.00 92 1004.5
20260509110018 51 236 0.0 5.0 0.00 0.00 0.00 92 1004.9
20260509104510 51 210 2.0 5.0 0.00 0.00 0.00 92 1004.5